Cotulla, TX

3:32 AM CDT on June 26, 2017 (GMT -0500)
Cotulla-La Salle County

Weather History for KCOT - October, 2013

Change the Weather History Date:

Friday, October 18, 2013

  Actual Average Record
Temperature  
Mean Temperature 74 °F -  
Max Temperature 82 °F 81 °F 98 °F (2016)
Min Temperature 66 °F 59 °F 48 °F (2001)
Cooling Degree Days 8    
Growing Degree Days 24 (Base 50)    
Moisture  
Dew Point 65 °F    
Average Humidity 75    
Maximum Humidity 88    
Minimum Humidity 62    
Precipitation  
Precipitation 0.00 in - - ()
Sea Level Pressure  
Sea Level Pressure 29.90 in    
Wind  
Wind Speed 6 mph (East)    
Max Wind Speed 8 mph    
Max Gust Speed -    
Visibility 10 miles    
Events Rain    
Averages and records for this station are not official NWS values.
T = Trace of Precipitation, MM = Missing Value Source: NWS Daily Summary

Daily Weather History Graph

Daily Weather History Graph

Search for Another Location

Airport or City:

Trip Planner

Search our weather history database for the weather conditions in past years. The results will help you decide how hot, cold, wet, or windy it might be!

Date:

Astronomy

Oct. 18, 2013 Rise Set
Actual Time 7:39 AM CDT 7:03 PM CDT
Civil Twilight 7:15 AM CDT 7:27 PM CDT
Nautical Twilight 6:48 AM CDT 7:55 PM CDT
Astronomical Twilight 6:20 AM CDT 8:22 PM CDT
Moon 6:56 PM CDT (10/18) 7:16 AM CDT (10/18)
Length of Visible Light 12h 11m
Length of Day
11h 24m
Full, 100% of the Moon is Illuminated
Oct 18
Full
Oct 18
Full
Oct 26
Last Quarter
Nov 3
New
Nov 9
First Quarter

Hourly Weather History & Observations

Time (CDT) Temp. Heat Index Dew Point Humidity Pressure Visibility Wind Dir Wind Speed Gust Speed Precip Events Conditions
12:53 AM 68.0 °F - 57.0 °F 68% 29.96 in 10.0 mi ENE 5.8 mph - N/A   Overcast
1:53 AM 68.0 °F - 57.9 °F 70% 29.95 in 10.0 mi East 5.8 mph - N/A   Overcast
2:53 AM 66.9 °F - 60.1 °F 79% 29.94 in 10.0 mi East 3.5 mph - N/A   Partly Cloudy
3:53 AM 66.9 °F - 61.0 °F 81% 29.92 in 10.0 mi East 3.5 mph - N/A   Overcast
4:53 AM 66.9 °F - 61.0 °F 81% 29.91 in 10.0 mi ENE 5.8 mph - N/A   Overcast
5:53 AM 66.9 °F - 60.1 °F 79% 29.91 in 10.0 mi NE 5.8 mph - N/A   Overcast
6:53 AM 66.9 °F - 59.0 °F 76% 29.93 in 10.0 mi East 4.6 mph - N/A   Overcast
7:53 AM 66.0 °F - 57.9 °F 75% 29.94 in 10.0 mi East 4.6 mph - N/A   Overcast
8:00 AM 66.2 °F - 57.2 °F 73% 29.96 in 10.0 mi ENE 4.6 mph - N/A   Overcast
8:53 AM 66.9 °F - 57.9 °F 73% 29.94 in 10.0 mi East 5.8 mph - N/A   Unknown
9:17 AM 68.0 °F - 57.2 °F 68% 29.96 in 10.0 mi East 6.9 mph - N/A   Overcast
9:53 AM 69.1 °F - 59.0 °F 70% 29.96 in 10.0 mi East 5.8 mph - N/A   Overcast
10:53 AM 72.0 °F - 62.1 °F 71% 29.94 in 10.0 mi East 6.9 mph - N/A   Overcast
11:53 AM 75.0 °F - 64.0 °F 69% 29.93 in 10.0 mi SE 6.9 mph - N/A   Overcast
12:53 PM 77.0 °F - 66.0 °F 69% 29.89 in 10.0 mi SE 8.1 mph - N/A   Mostly Cloudy
1:05 PM 78.8 °F - 66.2 °F 65% 29.90 in 10.0 mi Variable 5.8 mph - N/A   Scattered Clouds
1:53 PM 80.1 °F 82.3 °F 66.9 °F 64% 29.86 in 10.0 mi ESE 6.9 mph - N/A   Mostly Cloudy
2:16 PM 78.8 °F - 66.2 °F 65% 29.87 in 10.0 mi SSE 4.6 mph - N/A   Overcast
2:53 PM 81.0 °F 83.3 °F 66.9 °F 62% 29.83 in 10.0 mi SE 3.5 mph - N/A   Overcast
3:53 PM 80.1 °F 82.3 °F 66.9 °F 64% 29.81 in 10.0 mi East 6.9 mph - N/A   Overcast
4:53 PM 80.1 °F 82.7 °F 68.0 °F 67% 29.81 in 10.0 mi East 6.9 mph - N/A   Overcast
5:53 PM 79.0 °F - 70.0 °F 74% 29.81 in 10.0 mi ENE 5.8 mph - N/A   Overcast
6:53 PM 77.0 °F - 70.0 °F 79% 29.83 in 10.0 mi ENE 6.9 mph - N/A   Overcast
7:01 PM 77.0 °F - 69.8 °F 78% 29.85 in 10.0 mi NE 5.8 mph - 0.00 in Rain Light Rain
7:50 PM 75.2 °F - 69.8 °F 83% 29.87 in 10.0 mi NNE 5.8 mph - 0.00 in   Overcast
7:53 PM 75.0 °F - 70.0 °F 84% 29.85 in 10.0 mi NE 8.1 mph - 0.00 in   Overcast
8:16 PM 75.2 °F - 69.8 °F 83% 29.88 in 10.0 mi NE 8.1 mph - N/A   Overcast
8:25 PM 73.4 °F - 69.8 °F 88% 29.89 in 10.0 mi NE 8.1 mph - N/A   Overcast
8:33 PM 73.4 °F - 69.8 °F 88% 29.89 in 10.0 mi NE 8.1 mph - N/A   Overcast
8:53 PM 73.9 °F - 70.0 °F 87% 29.89 in 10.0 mi North - - N/A   Overcast
9:53 PM 73.0 °F - 69.1 °F 87% 29.91 in 10.0 mi East 6.9 mph - N/A   Overcast
10:53 PM 72.0 °F - 68.0 °F 87% 29.93 in 10.0 mi East 5.8 mph - N/A   Overcast
11:53 PM 72.0 °F - 66.9 °F 84% 29.94 in 10.0 mi ENE 6.9 mph - N/A   Overcast